Orbital Elements at Epoch 2459000.5 (2020-May-31.0) TDB
Reference: JPL 19 (heliocentric ecliptic J2000)
Element | Value | Uncertainty (1-sigma) | Units |
e | .06890608461852341 | 7.6311e-08 | |
a | 3.133888298965175 | 2.9373e-08 | au |
q | 2.91794432665168 | 2.4009e-07 | au |
i | 17.86966597815952 | 9.2557e-06 | deg |
node | 343.2308077661992 | 1.4113e-05 | deg |
peri | 159.5639489052784 | 4.048e-05 | deg |
M | 29.8230679308749 | 3.7751e-05 | deg |
tp | 2458832.629836599203 (2019-Dec-15.12983660) | 0.00021221 | TDB |
period | 2026.393091561256 5.55 | 2.8489e-05 7.8e-08 | d yr |
n | .1776555602657696 | 2.4977e-09 | deg/d |
Q | 3.34983227127867 | 3.1397e-08 | au |
|
| | Orbit Determination Parameters
Additional Information
|